• In Italy
  • List of Countries
  • For 7 days
  • Water Temperature
  • Satellite Maps
  • Weather Map
  • Weather Widgets
  • user-avatar
    Login

    Hourly Weather Mendoza

    Today, 28 May, Monday

    Time Temperature Precipitation Wind Pressure Humidity
    00:00 +14°C° 0 mm 3 mps 693 mmHg 46%
    01:00 +13°C° 0 mm 3 mps 693 mmHg 46%
    02:00 +13°C° 0 mm 3 mps 693 mmHg 47%
    03:00 +13°C° 0 mm 3 mps 693 mmHg 48%
    04:00 +13°C° 0 mm 3 mps 692 mmHg 50%
    05:00 +13°C° 0 mm 3 mps 693 mmHg 50%
    06:00 +13°C° 0 mm 3 mps 693 mmHg 50%
    07:00 +13°C° 0 mm 4 mps 693 mmHg 51%
    08:00 +15°C° 0 mm 4 mps 694 mmHg 47%
    09:00 +18°C° 0 mm 4 mps 695 mmHg 42%
    10:00 +20°C° 0 mm 5 mps 695 mmHg 38%
    11:00 +21°C° 0 mm 5 mps 695 mmHg 36%
    12:00 +21°C° 0 mm 4 mps 695 mmHg 35%
    13:00 +22°C° 0 mm 4 mps 695 mmHg 33%
    14:00 +22°C° 0 mm 4 mps 695 mmHg 35%
    15:00 +21°C° 0 mm 4 mps 695 mmHg 38%
    16:00 +21°C° 0 mm 4 mps 696 mmHg 40%
    17:00 +19°C° 0 mm 4 mps 696 mmHg 46%
    18:00 +18°C° 0 mm 3 mps 696 mmHg 53%
    19:00 +17°C° 0 mm 3 mps 696 mmHg 59%
    20:00 +16°C° 0 mm 3 mps 696 mmHg 61%
    21:00 +16°C° 0 mm 3 mps 696 mmHg 64%
    22:00 +14°C° 0 mm 3 mps 696 mmHg 66%
    23:00 +14°C° 0 mm 3 mps 696 mmHg 66%

    Tomorrow, 29 May, Tuesday

    Time Temperature Precipitation Wind Pressure Humidity
    00:00 +13°C° 0 mm 3 mps 696 mmHg 66%
    01:00 +13°C° 0 mm 3 mps 695 mmHg 67%
    02:00 +13°C° 0 mm 3 mps 695 mmHg 66%
    03:00 +13°C° 0 mm 3 mps 695 mmHg 65%
    04:00 +12°C° 0 mm 3 mps 694 mmHg 65%
    05:00 +12°C° 0 mm 3 mps 694 mmHg 64%
    06:00 +12°C° 0 mm 3 mps 695 mmHg 64%
    07:00 +12°C° 0 mm 3 mps 695 mmHg 64%
    08:00 +14°C° 0 mm 3 mps 695 mmHg 62%
    09:00 +17°C° 0 mm 3 mps 695 mmHg 60%
    10:00 +18°C° 0 mm 3 mps 696 mmHg 58%
    11:00 +19°C° 0 mm 3 mps 696 mmHg 54%
    12:00 +20°C° 0 mm 3 mps 695 mmHg 51%
    13:00 +21°C° 0 mm 3 mps 695 mmHg 48%
    14:00 +21°C° 0 mm 3 mps 696 mmHg 48%
    15:00 +20°C° 0 mm 3 mps 696 mmHg 49%
    16:00 +20°C° 0 mm 3 mps 696 mmHg 49%
    17:00 +19°C° 0.1 mm 4 mps 697 mmHg 55%
    18:00 +18°C° 0.1 mm 4 mps 698 mmHg 61%
    19:00 +16°C° 0.1 mm 5 mps 698 mmHg 66%
    20:00 +15°C° 0.1 mm 5 mps 699 mmHg 69%
    21:00 +14°C° 0.1 mm 5 mps 699 mmHg 71%
    22:00 +13°C° 0.1 mm 5 mps 700 mmHg 73%
    23:00 +13°C° 0.2 mm 5 mps 700 mmHg 73%

    Day after tomorrow, 30 May, Wednesday

    Time Temperature Precipitation Wind Pressure Humidity
    00:00 +12°C° 0.2 mm 5 mps 700 mmHg 72%
    01:00 +12°C° 0.2 mm 5 mps 700 mmHg 72%
    02:00 +12°C° 0.3 mm 5 mps 700 mmHg 73%
    03:00 +11°C° 0.3 mm 4 mps 700 mmHg 74%
    04:00 +11°C° 0.3 mm 4 mps 700 mmHg 75%
    05:00 +10°C° 0.4 mm 4 mps 700 mmHg 76%
    06:00 +10°C° 0.4 mm 4 mps 701 mmHg 77%
    07:00 +10°C° 0.4 mm 3 mps 701 mmHg 78%
    08:00 +10°C° 0.3 mm 3 mps 701 mmHg 76%
    09:00 +10°C° 0.3 mm 3 mps 702 mmHg 75%
    10:00 +10°C° 0.3 mm 3 mps 702 mmHg 74%
    11:00 +10°C° 0.2 mm 3 mps 701 mmHg 72%
    12:00 +10°C° 0.2 mm 3 mps 701 mmHg 69%
    13:00 +10°C° 0.2 mm 3 mps 700 mmHg 67%
    14:00 +10°C° 0.1 mm 3 mps 700 mmHg 66%
    15:00 +10°C° 0.1 mm 3 mps 700 mmHg 66%
    16:00 +10°C° 0.1 mm 2 mps 701 mmHg 65%
    17:00 +9°C° 0.1 mm 3 mps 701 mmHg 67%
    18:00 +9°C° 0.1 mm 3 mps 701 mmHg 69%
    19:00 +8°C° 0.1 mm 3 mps 702 mmHg 71%
    20:00 +8°C° 0.1 mm 3 mps 702 mmHg 68%
    21:00 +8°C° 0.1 mm 3 mps 703 mmHg 65%
    22:00 +7°C° 0.1 mm 3 mps 703 mmHg 62%
    23:00 +7°C° 0 mm 3 mps 702 mmHg 61%

    31 May, Thursday

    Time Temperature Precipitation Wind Pressure Humidity
    00:00 +7°C° 0 mm 3 mps 702 mmHg 60%
    01:00 +5°C° 0 mm 3 mps 702 mmHg 58%
    02:00 +5°C° 0 mm 3 mps 702 mmHg 60%
    03:00 +5°C° 0 mm 4 mps 701 mmHg 61%
    04:00 +4°C° 0 mm 4 mps 701 mmHg 62%
    05:00 +4°C° 0 mm 4 mps 701 mmHg 65%
    06:00 +4°C° 0 mm 4 mps 701 mmHg 67%
    07:00 +4°C° 0 mm 4 mps 701 mmHg 70%
    08:00 +5°C° 0 mm 4 mps 701 mmHg 69%
    09:00 +5°C° 0 mm 4 mps 701 mmHg 68%
    10:00 +6°C° 0 mm 4 mps 701 mmHg 67%
    11:00 +6°C° 0.1 mm 5 mps 700 mmHg 67%
    12:00 +7°C° 0.1 mm 5 mps 700 mmHg 66%
    13:00 +7°C° 0.1 mm 5 mps 699 mmHg 66%
    14:00 +7°C° 0.1 mm 5 mps 699 mmHg 68%
    15:00 +6°C° 0.1 mm 5 mps 699 mmHg 70%
    16:00 +6°C° 0.1 mm 4 mps 699 mmHg 73%
    17:00 +6°C° 0.1 mm 4 mps 700 mmHg 74%
    18:00 +5°C° 0.1 mm 4 mps 701 mmHg 76%
    19:00 +5°C° 0.1 mm 4 mps 701 mmHg 78%
    20:00 +5°C° 0 mm 4 mps 702 mmHg 78%
    21:00 +4°C° 0 mm 4 mps 702 mmHg 78%
    22:00 +4°C° 0 mm 4 mps 703 mmHg 78%
    23:00 +4°C° 0 mm 4 mps 703 mmHg 76%

    1 June, Friday

    Time Temperature Precipitation Wind Pressure Humidity
    00:00 +4°C° 0 mm 3 mps 702 mmHg 74%
    01:00 +4°C° 0 mm 3 mps 702 mmHg 73%
    02:00 +4°C° 0 mm 3 mps 702 mmHg 73%
    03:00 +4°C° 0 mm 2 mps 702 mmHg 73%
    04:00 +4°C° 0 mm 2 mps 702 mmHg 73%
    05:00 +4°C° 0 mm 2 mps 702 mmHg 71%
    06:00 +4°C° 0 mm 2 mps 702 mmHg 70%
    07:00 +3°C° 0 mm 2 mps 703 mmHg 68%
    08:00 +5°C° 0 mm 2 mps 702 mmHg 64%
    09:00 +6°C° 0 mm 2 mps 702 mmHg 61%
    10:00 +8°C° 0 mm 1 mps 702 mmHg 57%
    11:00 +8°C° 0 mm 2 mps 701 mmHg 56%
    12:00 +9°C° 0 mm 2 mps 701 mmHg 55%
    13:00 +10°C° 0 mm 2 mps 700 mmHg 54%
    14:00 +9°C° 0 mm 2 mps 700 mmHg 55%
    15:00 +9°C° 0 mm 2 mps 700 mmHg 55%
    16:00 +9°C° 0 mm 2 mps 700 mmHg 56%
    17:00 +8°C° 0 mm 2 mps 700 mmHg 58%
    18:00 +8°C° 0 mm 2 mps 701 mmHg 59%
    19:00 +7°C° 0 mm 2 mps 701 mmHg 61%
    20:00 +7°C° 0 mm 2 mps 701 mmHg 61%
    21:00 +6°C° 0 mm 2 mps 701 mmHg 61%
    22:00 +6°C° 0 mm 2 mps 701 mmHg 61%
    23:00 +6°C° 0 mm 2 mps 701 mmHg 62%

    2 June, Saturday

    Time Temperature Precipitation Wind Pressure Humidity
    00:00 +5°C° 0 mm 2 mps 700 mmHg 63%
    01:00 +5°C° 0 mm 2 mps 700 mmHg 64%
    02:00 +5°C° 0 mm 2 mps 700 mmHg 65%
    03:00 +5°C° 0 mm 2 mps 700 mmHg 67%
    04:00 +4°C° 0 mm 2 mps 699 mmHg 68%
    05:00 +4°C° 0 mm 2 mps 699 mmHg 69%
    06:00 +4°C° 0 mm 2 mps 700 mmHg 69%
    07:00 +4°C° 0 mm 2 mps 700 mmHg 70%
    08:00 +6°C° 0 mm 2 mps 700 mmHg 69%
    09:00 +7°C° 0 mm 2 mps 700 mmHg 68%
    10:00 +8°C° 0 mm 3 mps 700 mmHg 67%
    11:00 +9°C° 0 mm 2 mps 699 mmHg 66%
    12:00 +10°C° 0 mm 2 mps 699 mmHg 65%
    13:00 +10°C° 0 mm 2 mps 698 mmHg 65%
    14:00 +10°C° 0 mm 3 mps 698 mmHg 66%
    15:00 +10°C° 0 mm 3 mps 698 mmHg 68%
    16:00 +9°C° 0 mm 3 mps 699 mmHg 70%
    17:00 +8°C° 0 mm 4 mps 699 mmHg 73%
    18:00 +7°C° 0 mm 4 mps 700 mmHg 75%
    19:00 +6°C° 0 mm 4 mps 700 mmHg 77%
    20:00 +7°C° 0 mm 4 mps 700 mmHg 78%
    21:00 +7°C° 0 mm 4 mps 700 mmHg 79%
    22:00 +7°C° 0 mm 4 mps 700 mmHg 80%
    23:00 +6°C° 0.1 mm 4 mps 700 mmHg 81%
    Show more